Location: Dampvalley
(47.9094°N, 6.1967°E)
Time: 18:41:41
(UTC+00:00)

SL-16 R/B - Pass Details

Date: 05 March 2021
Orbit: 840 x 850 km, 71.0° (Epoch: 15 April)

Event Time Altitude Azimuth Distance (km) Brightness Sun altitude
Rises 05:18:58 0° 336° (NNW) 3,425 5.1 -9.1°
Reaches altitude 10° 05:21:45 10° 347° (NNW) 2,486 4.5 -8.6°
Maximum altitude 05:26:44 30° 48° (NE) 1,489 4.1 -7.8°
Drops below altitude 10° 05:31:41 10° 109° (ESE) 2,476 6.1 -6.9°
Sets 05:34:26 0° 120° (ESE) 3,407 6.6 -6.5°
